Davenport, IA

11:13 AM CDT on July 27, 2017 (GMT -0500)
Davenport Municipal

Weather History for KDVN - November, 2010

Change the Weather History Date:

Monday, November 8, 2010

  Actual Average Record
Temperature  
Mean Temperature 53 °F 43 °F  
Max Temperature 69 °F 52 °F 77 °F (1999)
Min Temperature 36 °F 33 °F 15 °F (2003)
Degree Days  
Heating Degree Days 12 22  
Month to date heating degree days 171 166  
Since 1 July heating degree days 603 726  
Cooling Degree Days 0 0  
Month to date cooling degree days 0 0  
Year to date cooling degree days 1059 786  
Growing Degree Days 2 (Base 50)    
Moisture  
Dew Point 34 °F    
Average Humidity 50    
Maximum Humidity 70    
Minimum Humidity 30    
Precipitation  
Precipitation 0.00 in 0.08 in 0.85 in (2011)
Month to date precipitation T 0.86  
Year to date precipitation 40.17 32.71  
Snow  
Snow 0.00 in - - ()
Month to date snowfall 0.0  
Since 1 July snowfall 0.0  
Since 1 September snowfall 0.0  
Snow Depth 0.00 in    
Sea Level Pressure  
Sea Level Pressure 29.90 in    
Wind  
Wind Speed 8 mph (South)    
Max Wind Speed 17 mph    
Max Gust Speed 22 mph    
Visibility 10 miles    
Events      
T = Trace of Precipitation, MM = Missing Value Source: NWS Daily Summary

Daily Weather History Graph

Daily Weather History Graph

Search for Another Location

Airport or City:

Trip Planner

Search our weather history database for the weather conditions in past years. The results will help you decide how hot, cold, wet, or windy it might be!

Date:

Astronomy

Nov. 08, 2010 Rise Set
Actual Time 6:42 AM CST 4:48 PM CST
Civil Twilight 6:13 AM CST 5:18 PM CST
Nautical Twilight 5:40 AM CST 5:51 PM CST
Astronomical Twilight 5:07 AM CST 6:23 PM CST
Moon 9:32 AM CST (11/8) 6:43 PM CST (11/8)
Length of Visible Light 11h 04m
Length of Day
10h 06m
Waxing Crescent, 8% of the Moon is Illuminated
Nov 8
Waxing Crescent
Nov 13
First Quarter
Nov 21
Full
Nov 28
Last Quarter
Dec 5
New

Hourly Weather History & Observations

Time (CST) Temp. Windchill Dew Point Humidity Pressure Visibility Wind Dir Wind Speed Gust Speed Precip Events Conditions
12:52 AM 51.1 °F - 32.0 °F 48% 30.01 in 10.0 mi SSW 5.8 mph - N/A   Clear
1:52 AM 48.9 °F - 30.9 °F 50% 30.00 in 10.0 mi SSW 6.9 mph - N/A   Clear
2:52 AM 41.0 °F 37.1 °F 30.9 °F 67% 29.99 in 10.0 mi South 5.8 mph - N/A   Clear
3:52 AM 41.0 °F 36.4 °F 30.0 °F 65% 29.98 in 10.0 mi South 6.9 mph - N/A   Clear
4:52 AM 42.1 °F 38.4 °F 30.9 °F 65% 29.97 in 10.0 mi SE 5.8 mph - N/A   Clear
5:52 AM 39.9 °F 34.5 °F 30.9 °F 70% 29.96 in 10.0 mi SSE 8.1 mph - N/A   Clear
6:52 AM 37.0 °F 31.6 °F 28.9 °F 73% 29.96 in 10.0 mi South 6.9 mph - N/A   Clear
7:52 AM 46.0 °F 41.9 °F 33.1 °F 61% 29.96 in 10.0 mi South 8.1 mph - N/A   Clear
8:52 AM 53.1 °F - 33.1 °F 47% 29.95 in 10.0 mi South 8.1 mph - N/A   Clear
9:52 AM 57.0 °F - 33.1 °F 40% 29.93 in 10.0 mi South 11.5 mph - N/A   Clear
10:52 AM 60.1 °F - 34.0 °F 38% 29.91 in 10.0 mi South 12.7 mph 19.6 mph N/A   Clear
11:52 AM 64.0 °F - 35.1 °F 34% 29.88 in 10.0 mi South 11.5 mph 19.6 mph N/A   Clear
12:52 PM 66.0 °F - 36.0 °F 33% 29.86 in 10.0 mi South 13.8 mph - N/A   Clear
2:52 PM 68.0 °F - 36.0 °F 31% 29.83 in 10.0 mi SSW 10.4 mph - N/A   Clear
3:52 PM 66.9 °F - 37.0 °F 33% 29.83 in 10.0 mi SSW 9.2 mph - N/A   Clear
4:52 PM 61.0 °F - 37.0 °F 41% 29.84 in 10.0 mi SW 4.6 mph - N/A   Clear
5:52 PM 57.0 °F - 37.0 °F 47% 29.86 in 10.0 mi South 8.1 mph - N/A   Clear
6:52 PM 55.9 °F - 37.0 °F 49% 29.85 in 10.0 mi SSW 6.9 mph - N/A   Clear
7:52 PM 51.1 °F - 37.0 °F 59% 29.85 in 10.0 mi South 6.9 mph - N/A   Clear
8:52 PM 48.9 °F - 36.0 °F 61% 29.85 in 10.0 mi South 5.8 mph - N/A   Clear
9:52 PM 54.0 °F - 37.0 °F 53% 29.84 in 10.0 mi SSW 6.9 mph - N/A   Clear
10:52 PM 53.1 °F - 36.0 °F 52% 29.84 in 10.0 mi SSW 6.9 mph - N/A   Clear
11:52 PM 54.0 °F - 37.0 °F 53% 29.84 in 10.0 mi SSW 8.1 mph - N/A   Clear